Simultaneous Nadir Overpasses (SNOs) Predictions

Prediction of SNOs near US between AQUA and NPP Satellite Orbit:

Table of predicted SNOs near US for the next 10.0 days since TLE Epoch: 2/18/2017
Index Date (AQUA) Time (AQUA) AQUA Lat,Lon Date (NPP) Time (NPP) NPP Lat,Lon Distance(km) Time Diff (sec)
1 02/20/2017 07:18:49 49.90, -75.97 02/20/2017 07:20:16 50.37, -78.20 167.30 87
2 02/20/2017 08:57:42 49.90,-100.69 02/20/2017 09:01:44 50.47,-103.53 211.70 242
3 02/22/2017 18:17:00 49.97, -80.20 02/22/2017 18:10:32 49.70, -81.76 115.86 388
4 02/22/2017 19:55:53 49.96,-104.92 02/22/2017 19:52:00 49.60,-107.09 161.11 233
5 02/22/2017 21:31:02 36.60,-124.98 02/22/2017 21:29:37 36.10,-127.55 236.86 85
6 02/25/2017 09:24:09 21.60,-113.87 02/25/2017 09:16:15 21.70,-114.34 50.36 474




NCC Satellite Simultaneous Nadir Overpasses (SNOs) Prediction Service
